Location: Morgantown
(40.9734°N, 80.6323°W)
Time: 13:06:08
(UTC+00:00)

Daily predictions for brighter satellites

Satellite Brightness Start Highest point End
(mag) Time Altitude Azimuth Time Altitude Azimuth Time Altitude Azimuth
Meteor 2-14 Rocket 4.5 22:35:21 10° N 22:41:31 75° E 22:47:36 10° SSE
Cosmos 2297 Rocket 2.6 22:39:07 10° N 22:44:28 41° ENE 22:49:46 10° SE
USA 306 4.3 22:45:37 10° NNW 22:49:03 23° NNE 22:52:28 10° ENE
SKYMED 2 4.5 22:46:08 10° NE 22:49:52 28° E 22:53:36 10° SSE
Cosmos 292 Rocket 4.1 22:46:48 10° SSW 22:51:34 72° WNW 22:56:25 10° NNE
H-2A R/B 4.1 22:48:30 10° S 22:52:45 45° W 22:57:05 10° NNW
Radarsat Rocket 4.4 22:49:43 10° S 22:55:46 68° WSW 23:01:34 10° NNW
Timation 2 Rocket 4.2 22:49:17 10° NNW 22:55:58 80° ENE 23:02:49 10° SSE
Meteor 2-10 Rocket 4.4 22:52:49 10° SSE 22:57:17 28° E 23:01:38 10° NNE
Okean-O 3.9 22:54:11 10° ESE 22:57:25 20° ENE 23:00:39 10° NNE
SMAP 3.3 22:56:47 10° S 23:01:25 75° WSW 23:06:05 10° NNW
Cosmos 1553 Rocket 4.3 22:55:58 10° SSE 23:01:58 47° E 23:07:56 10° NNE
Cosmos 1408 4.0 23:00:19 10° NNE 23:02:53 18° ENE 23:05:26 10° ESE
Cosmos 1689 Rocket 3.0 23:00:35 10° NE 23:03:04 26° E 23:05:32 10° SSE
FengYun 1-2 T 4.2 22:57:56 10° SSE 23:03:34 71° ENE 23:09:10 10° N
H-2A R/B 3.6 23:01:47 10° E 23:05:13 17° ENE 23:08:40 10° NNE
AQUARIUS 4.5 23:02:41 10° S 23:07:09 73° WSW 23:11:40 10° NNW
Cosmos 1953 Rocket 3.7 23:05:13 10° N 23:09:40 83° W 23:14:06 10° S
Cosmos 44 Rocket 4.1 23:08:23 10° S 23:12:27 29° ESE 23:16:15 12° NE
Cosmos 2058 Rocket 3.1 23:09:27 10° S 23:13:56 83° E 23:18:27 10° N
Lacrosse 5 4.0 23:12:05 10° NNW 23:14:19 13° N 23:16:33 10° NNE
Cosmos 2219 3.2 23:12:44 10° NNW 23:18:32 80° ENE 23:24:16 10° SSE
Cosmos 1892 2.9 23:17:57 10° N 23:21:44 47° E 23:25:28 10° SSE
Cosmos 1939 Rocket 2.8 23:19:14 10° SSE 23:23:08 59° ENE 23:26:59 10° N
ARGOS 4.5 23:21:55 16° E 23:23:41 19° ENE 23:27:20 10° NNE
SL-08 R/B 4.4 23:18:22 10° N 23:24:29 64° E 23:30:31 10° SSE
Cosmos 1076 Rocket 4.4 23:21:11 10° NNE 23:24:50 27° ENE 23:28:28 10° SE
Cosmos 968 Rocket 3.5 23:20:13 10° NNW 23:25:22 59° ENE 23:30:27 10° SSE
Cosmos 1656 3.8 23:19:57 10° SSW 23:25:30 77° WNW 23:31:10 10° NNE
Cosmos 2082 4.2 23:20:08 10° N 23:25:31 40° ENE 23:30:52 10° SE
CZ-4B R/B 2.8 23:24:34 10° N 23:27:32 38° WNW 23:30:26 10° SW
SAR-Lupe-4 3.7 23:24:39 10° N 23:28:15 78° WNW 23:31:49 10° SSW
Aureole 3 Rocket 3.5 23:25:40 10° SSW 23:29:37 73° W 23:35:07 10° N
Cosmos 1745 Rocket 4.1 23:25:10 10° N 23:31:20 52° ENE 23:37:30 10° SSE
NOSS 3-3 (A) 3.8 23:25:50 10° SSW 23:31:32 75° ESE 23:37:55 10° NE
NOSS 3-3 (C) 3.8 23:25:57 10° SSW 23:31:38 74° ESE 23:38:02 10° NE
Cosmos 1400 Rocket 3.8 23:29:12 10° SSW 23:33:12 52° WNW 23:37:12 10° N
USA 307 3.6 23:29:15 10° NW 23:33:14 36° NNE 23:35:04 24° ENE
Feng Yun 1-1 Rocket 4.5 23:30:06 10° SSE 23:36:00 83° WSW 23:41:59 10° NNW
Cosmos 1825 3.0 23:33:19 10° NNE 23:36:38 28° ENE 23:37:06 28° E
ERS-2 4.1 23:33:42 10° N 23:36:56 30° WNW 23:40:09 10° SW
IRS-1C Rocket 4.0 23:32:45 10° SSE 23:38:00 84° ENE 23:43:19 10° NNW
COSMO-SKYMED 1 2.6 23:33:41 10° NNE 23:38:03 85° WNW 23:42:23 10° SSW
USA 308 3.5 23:34:13 10° NW 23:38:14 39° NNE 23:39:51 28° ENE
Cosmos 2369 3.7 23:32:43 10° S 23:38:19 62° ESE 23:43:57 10° NNE
GPS 2-04 Rocket1 4.0 23:35:58 10° SW 23:39:30 30° SSE 23:41:13 22° SE
Helios 1A Rocket 2.8 23:37:42 10° SSE 23:41:46 64° ENE 23:45:50 10° N
OAO 2 Rocket 4.0 23:39:37 10° WSW 23:44:21 42° S 23:46:58 23° ESE
CSL-04 Rocket 4.2 23:40:07 10° SE 23:45:09 37° ENE 23:50:10 10° N
CZ-4 R/B 4.3 23:41:48 10° SSE 23:45:57 84° E 23:50:08 10° N
CZ-2D R/B 3.1 23:42:21 10° SSE 23:46:08 81° ENE 23:49:57 10° N
ATLAS 2AS CENTAUR R/B 3.8 23:40:03 10° NNW 23:46:12 26° NE 23:48:38 22° ENE
Cosmos 1340 3.8 23:43:56 10° NNW 23:47:35 46° W 23:51:12 10° S
YAOGAN 1 2.7 23:43:37 10° SSE 23:47:47 51° ENE 23:52:00 10° N
Cosmos 2227 Rocket 2.4 23:43:29 10° NNW 23:49:08 76° WSW 23:54:47 10° SSE
Cosmos 2263 Rocket 3.6 23:46:30 10° N 23:50:17 19° NE 23:50:17 19° NE
CZ-4 R/B 1.1 23:47:59 10° SSE 23:51:50 67° ENE 23:55:40 10° N
Cosmos 1812 Rocket 3.5 23:49:51 10° S 23:54:11 62° E 23:58:32 10° NNE
